Regional Weather Roundup
Issued by NWS Cleveland, OH

Home | Current Version | Previous Version | Text Only | Print | Product List | Glossary Off
Versions: 1 2 3 4 5 6 7 8 9 10 11 12 13 14 15 16 17 18 19 20 21 22 23 24 25 26 27 28 29 30 31 32 33 34 35 36 37 38 39 40 41 42 43 44 45 46 47 48 49 50

000
ASUS41 KCLE 291810
RWRCLE
OHIO REGIONAL WEATHER ROUNDUP
NATIONAL WEATHER SERVICE CLEVELAND, OH
200 PM EDT SAT AUG 29 2015

NOTE: "FAIR" INDICATES FEW OR NO CLOUDS BELOW 12,000 FEET WITH NO
SIGNIFICANT WEATHER AND/OR OBSTRUCTIONS TO VISIBILITY.

OHZ001>008-015>018-024>027-034-035-043-044-291900-
   NORTHWEST OHIO

CITY           SKY/WX    TMP DP  RH WIND       PRES   REMARKS
DEFIANCE       CLOUDY    78  63  59 SE8       30.08F
FINDLAY        MOSUNNY   82  65  56 VRB3      30.09F
TOLEDO EXPRESS PTSUNNY   77  63  61 SE6       30.09F
TOLEDO EXEC    MOSUNNY   80  63  55 SE6       30.09F
LIMA           PTSUNNY   81  66  60 SW9       30.10F
$$

OHZ009>014-019>023-028>033-038-089-291900-
   NORTHEAST OHIO

CITY           SKY/WX    TMP DP  RH WIND       PRES   REMARKS
CLE-HOPKINS    PTSUNNY   82  60  47 VRB3      30.13F
CLE-LAKEFRONT  PTSUNNY   80  60  50 N7        30.11F
CUY CO. ARPT   NOT AVBL
LORAIN-ELYRIA  PTSUNNY   80  61  52 CALM      30.12F
ASHTABULA      MOSUNNY   78  56  46 MISG      30.15F
AKRON-CANTON   PTSUNNY   81  60  48 SW10      30.15F
WOOSTER        MOSUNNY   82  62  50 S8        30.14F
MANSFIELD      PTSUNNY   82  63  52 SW10      30.13F
YOUNGSTOWN     PTSUNNY   79  59  50 SW6       30.16F
$$

OHZ042-051>053-060>062-070>072-077>081-291900-
  SOUTHWEST OHIO

CITY           SKY/WX    TMP DP  RH WIND       PRES   REMARKS
CINC-COVINGTON PTSUNNY   85  67  54 SW9       30.12F
CINC-LUNKEN    MOSUNNY   85  69  58 S12       30.11F
HAMILTON       PTSUNNY   84  67  56 W7        30.12F
DAYTON         CLOUDY    82  65  56 W12       30.13F
WRIGHT-PAT AFB CLOUDY    84  67  56 W9        30.11F
DAYTON GENERAL PTSUNNY   84  64  50 SW8       30.12F
WILMINGTON     MOSUNNY   84  65  52 W13       30.13F
$$

OHZ036-037-039>041-045>050-054>059-063>069-073>076-082>088-291900-
  CENTRAL AND SOUTHEAST OHIO

CITY           SKY/WX    TMP DP  RH WIND       PRES   REMARKS
COLUMBUS       PTSUNNY   82  65  56 S12       30.12F
OSU AIRPORT    PTSUNNY   83  66  56 W8        30.12F
BOLTON FIELD   PTSUNNY   84  66  54 SW12      30.13F
RICKENBACK AFB PTSUNNY   85  65  52 SW12G21   30.11F
NEWARK         MOSUNNY   85  64  49 SW12      30.12F
MARION         MOSUNNY   82  65  56 SW9       30.12F
LANCASTER      MOSUNNY   84  67  56 SW9       30.13F
ZANESVILLE     PTSUNNY   86  61  42 W6        30.13F
NEW PHILLY     SUNNY     84  63  49 VRB5      30.14F
$$



USA.gov is the U.S. government's official web portal to all federal, state and local government web resources and services.